User: anonymous   Login
Location: Caltech
(34.1382°N, 118.1253°W)
Time: 17:35:16
(UTC-08:00)
Language:

RESURS DK-1 - Orbit

View from above orbital plane
View from above orbital plane
View from above satellite
View from above satellite

Ground track
Ground track

The orbit data is extracted from the following two-line orbital elements,

1 29228U 06021A   17021.80651844  .00000138  00000-0  17893-4 0  9993
2 29228  69.9361 110.4805 0006757 231.4145 128.6411 15.02078568586120
Epoch (UTC): 21 January 2017 19:21:23
Eccentricity: 0.0006757
inclination: 69.9361°
perigee height: 556 km
apogee height: 565 km
right ascension of ascending node: 110.4805°
argument of perigee: 231.4145°
revolutions per day: 15.02078568
mean anomaly at epoch: 128.6411°
orbit number at epoch: 58612

The dashed part of the orbit path shows where the satellite is in the earth's shadow,  

DLR